Madrid, Spain

12:39 AM CET on December 09, 2016 (GMT +0100)
Madrid-Barajas Airport

Weather History for LEMD - September, 2012

Change the Weather History Date:

Tuesday, September 18, 2012

  Actual Average Record
Temperature  
Mean Temperature 72 °F -  
Max Temperature 86 °F 72 °F 87 °F (2004)
Min Temperature 57 °F 50 °F 42 °F (2005)
Cooling Degree Days 6    
Growing Degree Days 22 (Base 50)    
Moisture  
Dew Point 42 °F    
Average Humidity 33    
Maximum Humidity 51    
Minimum Humidity 11    
Precipitation  
Precipitation 0.00 in 0.04 in - ()
Sea Level Pressure  
Sea Level Pressure 29.98 in    
Wind  
Wind Speed 4 mph ()    
Max Wind Speed 9 mph    
Max Gust Speed 32 mph    
Visibility 18.2 miles    
Events      
Averages and records for this station are not official NWS values.
T = Trace of Precipitation, MM = Missing Value Source: Averaged Metar Reports

Daily Weather History Graph

Daily Weather History Graph

Search for Another Location

Airport or City:

Trip Planner

Search our weather history database for the weather conditions in past years. The results will help you decide how hot, cold, wet, or windy it might be!

Date:

Astronomy

Sep. 18, 2012 Rise Set
Actual Time 7:58 AM CEST 8:17 PM CEST
Civil Twilight 7:30 AM CEST 8:44 PM CEST
Nautical Twilight 6:58 AM CEST 9:16 PM CEST
Astronomical Twilight 6:25 AM CEST 9:49 PM CEST
Moon 10:41 AM CEST (9/18) 9:29 PM CEST (9/18)
Length of Visible Light 13h 14m
Length of Day
12h 19m
Waxing Crescent, 7% of the Moon is Illuminated
Sep 18
Waxing Crescent
Sep 22
First Quarter
Sep 30
Full
Oct 8
Last Quarter
Oct 15
New

Hourly Weather History & Observations

Time (CEST) Temp. Dew Point Humidity Pressure Visibility Wind Dir Wind Speed Gust Speed Precip Events Conditions
12:00 AM 77.0 °F 42.8 °F 29% 30.01 in - South 6.9 mph - N/A   Clear
12:30 AM 75.2 °F 42.8 °F 31% 30.01 in - South 4.6 mph - N/A   Clear
1:00 AM 73.4 °F 42.8 °F 33% 30.01 in - SSE 3.5 mph - N/A   Clear
1:30 AM 71.6 °F 42.8 °F 35% 30.01 in - SE 3.5 mph - N/A   Clear
2:00 AM 68 °F 42 °F 28% 29.94 in 19 mi ENE 2.3 mph - -   Mostly Cloudy
2:00 AM 68.0 °F 42.8 °F 40% 30.01 in - Variable 1.2 mph - N/A   Clear
2:30 AM 68.0 °F 44.6 °F 43% 29.98 in - ESE 3.5 mph - N/A   Clear
3:00 AM 68.0 °F 44.6 °F 43% 29.98 in - Variable 2.3 mph - N/A   Clear
3:30 AM 66.2 °F 42.8 °F 43% 29.98 in - North 3.5 mph - N/A   Clear
4:00 AM 64.4 °F 41.0 °F 42% 29.98 in - North 4.6 mph - N/A   Clear
4:30 AM 64.4 °F 41.0 °F 42% 29.98 in - North 3.5 mph - N/A   Clear
5:00 AM 62.6 °F 41.0 °F 45% 29.98 in - NNE 4.6 mph - N/A   Clear
5:30 AM 62.6 °F 41.0 °F 45% 29.98 in - North 4.6 mph - N/A   Clear
6:00 AM 60.8 °F 41.0 °F 48% 29.98 in - Variable 1.2 mph - N/A   Clear
6:30 AM 60.8 °F 41.0 °F 48% 29.98 in - North 3.5 mph - N/A   Clear
7:00 AM 59.0 °F 41.0 °F 51% 29.98 in - North 3.5 mph - N/A   Clear
7:30 AM 60.8 °F 41.0 °F 48% 29.98 in - NNW 3.5 mph - N/A   Clear
8:00 AM 58 °F 40 °F 39% 29.98 in 16 mi NNE 5.8 mph - -   Scattered Clouds
8:00 AM 59.0 °F 41.0 °F 51% 30.01 in - NNE 3.5 mph - N/A   Clear
8:30 AM 60.8 °F 41.0 °F 48% 30.01 in - NNE 3.5 mph - N/A   Clear
9:00 AM 60.8 °F 41.0 °F 48% 29.98 in - North 5.8 mph - N/A   Clear
9:30 AM 62.6 °F 41.0 °F 45% 30.01 in - Variable 2.3 mph - N/A   Clear
10:00 AM 64.4 °F 41.0 °F 42% 30.01 in - North 4.6 mph - N/A   Clear
10:30 AM 66.2 °F 41.0 °F 40% 30.01 in - West 4.6 mph - N/A   Clear
11:00 AM 68.0 °F 41.0 °F 37% 30.04 in - SSE 1.2 mph - N/A   Clear
11:30 AM 71.6 °F 41.0 °F 33% 30.04 in - East 2.3 mph - N/A   Clear
12:00 PM 73.4 °F 41.0 °F 31% 30.01 in - Variable 3.5 mph - N/A   Clear
12:30 PM 75.2 °F 41.0 °F 29% 30.01 in - SSE 5.8 mph - N/A   Clear
1:00 PM 75.2 °F 41.0 °F 29% 30.01 in - Variable 5.8 mph 17.3 mph N/A   Clear
1:30 PM 77.0 °F 42.8 °F 29% 30.01 in - SSW 6.9 mph 18.4 mph N/A   Clear
2:00 PM 78 °F 39 °F 15% 29.92 in 19 mi SSW 8.1 mph - -   Partly Cloudy
2:00 PM 78.8 °F 41.0 °F 26% 30.01 in - SSW 6.9 mph 19.6 mph N/A   Clear
2:30 PM 82.4 °F 41.0 °F 23% 30.01 in - South 3.5 mph - N/A   Clear
3:00 PM 84.2 °F 41.0 °F 22% 29.98 in - SSE 4.6 mph - N/A   Clear
3:30 PM 86.0 °F 41.0 °F 20% 29.98 in - SSW 3.5 mph - N/A   Clear
4:00 PM 86.0 °F 41.0 °F 20% 29.98 in - SSW 9.2 mph 32.2 mph N/A   Clear
4:30 PM 84.2 °F 41.0 °F 22% 29.95 in - SSE 9.2 mph - N/A   Clear
5:00 PM 84.2 °F 41.0 °F 22% 29.95 in - South 9.2 mph - N/A   Clear
5:30 PM 86.0 °F 39.2 °F 19% 29.95 in - SSW 6.9 mph - N/A   Clear
6:00 PM 87.8 °F 41.0 °F 19% 29.95 in - SW 6.9 mph 19.6 mph N/A   Clear
6:30 PM 87.8 °F 41.0 °F 19% 29.95 in - WSW 5.8 mph - N/A   Clear
7:00 PM 86.0 °F 39.2 °F 19% 29.95 in - West 5.8 mph - N/A   Clear
7:30 PM 86.0 °F 41.0 °F 20% 29.95 in - South 3.5 mph - N/A   Clear
8:00 PM 84 °F 38 °F 11% 29.81 in 19 mi SW 3.5 mph - -   Scattered Clouds
8:00 PM 86.0 °F 41.0 °F 20% 29.95 in - SW 3.5 mph 16.1 mph N/A   Clear
8:30 PM 80.6 °F 41.0 °F 24% 29.95 in - North 3.5 mph - N/A   Clear
9:00 PM 78.8 °F 42.8 °F 28% 29.95 in - North 6.9 mph - N/A   Clear
9:30 PM 78.8 °F 44.6 °F 30% 29.95 in - North 6.9 mph - N/A   Clear
10:00 PM 77.0 °F 46.4 °F 34% 29.95 in - NNW 4.6 mph - N/A   Clear
10:30 PM 75.2 °F 44.6 °F 34% 29.95 in - ENE 3.5 mph - N/A   Clear
11:00 PM 73.4 °F 46.4 °F 38% 29.98 in - Variable 2.3 mph - N/A   Clear
11:30 PM 71.6 °F 48.2 °F 43% 29.98 in - Variable 2.3 mph - N/A   Clear